This is the latest recevied weather packets stored in our database for station/object N4DBJ. If no packets are shown the sender has not sent any weather packets the latest 10 day(s).
| Time | Temp. | Humidity | Pressure | Rain* | Wind** | Luminosity | Snow |
|---|---|---|---|---|---|---|---|
| 1778057304 | 11.67° C | 99% | 1007.4 hPa | 0 mm | - | 0 W/m² | - |
| 1778057001 | 11.67° C | 99% | 1007.5 hPa | 0 mm | - | 0 W/m² | - |
| 1778056697 | 11.67° C | 99% | 1006.9 hPa | 0 mm | - | 0 W/m² | - |
| 1778056395 | 12.22° C | 99% | 1006.6 hPa | 0 mm | - | 0 W/m² | - |
| 1778056092 | 12.22° C | 99% | 1006.2 hPa | 0 mm | - | 0 W/m² | - |
| 1778055788 | 12.22° C | 99% | 1006.1 hPa | 0 mm | - | 0 W/m² | - |
| 1778055485 | 12.22° C | 99% | 1006.1 hPa | 0 mm | - | 0 W/m² | - |
| 1778055183 | 12.22° C | 99% | 1006.1 hPa | 0 mm | - | 0 W/m² | - |
| 1778054881 | 12.78° C | 99% | 1005.8 hPa | 0 mm | - | 0 W/m² | - |
| 1778054576 | 12.78° C | 99% | 1005.5 hPa | 0 mm | - | 0 W/m² | - |
| 1778054275 | 12.78° C | 99% | 1005.5 hPa | 0 mm | - | 0 W/m² | - |
| 1778053972 | 13.33° C | 99% | 1005.7 hPa | 0 mm | - | 0 W/m² | - |
| 1778053669 | 13.89° C | 99% | 1006 hPa | 0 mm | - | 0 W/m² | - |
| 1778053366 | 13.89° C | 99% | 1005.3 hPa | 0 mm | - | 0 W/m² | - |
| 1778053063 | 14.44° C | 99% | 1004.7 hPa | 0 mm | - | 0 W/m² | - |
| 1778052761 | 15.56° C | 99% | 1004.9 hPa | 0 mm | - | 0 W/m² | - |
| 1778052458 | 17.22° C | 99% | 1004.4 hPa | 0 mm | - | 0 W/m² | - |
| 1778052155 | 17.78° C | 99% | 1004.5 hPa | 0 mm | - | 0 W/m² | - |
| 1778051853 | 17.78° C | 99% | 1004.3 hPa | 0 mm | - | 0 W/m² | - |
| 1778051551 | 17.78° C | 99% | 1004.5 hPa | 0 mm | - | 0 W/m² | - |
| 1778051247 | 17.78° C | 99% | 1004.5 hPa | 0 mm | - | 0 W/m² | - |
| 1778050944 | 17.78° C | 99% | 1004.4 hPa | 0 mm | - | 0 W/m² | - |
| 1778050642 | 17.78° C | 99% | 1004.3 hPa | 0 mm | - | 0 W/m² | - |
| 1778050339 | 17.78° C | 99% | 1004.3 hPa | 0 mm | - | 0 W/m² | - |
| 1778050035 | 17.78° C | 99% | 1004.3 hPa | 0 mm | - | 0 W/m² | - |
* Rain latest hour (hover to see other rain measurements)
** Current wind speed in m/s (hover to see current wind gust speed)